Miles City, MT

7:25 AM MDT on September 19, 2019 (GMT -0600)
Wiley

Weather History for KMLS - August, 2019

Change the Weather History Date:

Thursday, August 22, 2019

  Actual Average Record
Temperature  
Mean Temperature 80 °F 71 °F  
Max Temperature 94 °F 86 °F 103 °F (1971)
Min Temperature 66 °F 57 °F 35 °F (1966)
Degree Days  
Heating Degree Days 0 1  
Month to date heating degree days 8 6  
Since 1 June heating degree days 100 105  
Since 1 July heating degree days 14 16  
Cooling Degree Days 15 7  
Month to date cooling degree days 189 205  
Year to date cooling degree days 502 620  
Since 1 June cooling degree days 499 600  
Growing Degree Days 30 (Base 50)    
Moisture  
Dew Point 60 °F    
Average Humidity 54    
Maximum Humidity 81    
Minimum Humidity 26    
Precipitation  
Precipitation 0.06 in 0.02 in 1.52 in (1973)
Month to date precipitation 1.08 0.68  
Year to date precipitation 10.97 9.53  
Sea Level Pressure  
Sea Level Pressure 29.72 in    
Wind  
Wind Speed 14 mph (SSE)    
Max Wind Speed 24 mph    
Max Gust Speed 33 mph    
Visibility 10 miles    
Events Rain , Thunderstorm    
T = Trace of Precipitation, MM = Missing Value Source: NWS Daily Summary

Daily Weather History Graph

Daily Weather History Graph

Search for Another Location

Airport or City:

Astronomy

Aug. 22, 2019 Rise Set
Actual Time 6:10 AM MDT 8:01 PM MDT
Civil Twilight 5:38 AM MDT 8:33 PM MDT
Nautical Twilight 4:59 AM MDT 9:12 PM MDT
Astronomical Twilight 4:15 AM MDT 9:55 PM MDT
Moon 11:28 PM MDT (8/22) 1:12 PM MDT (8/22)
Length of Visible Light 14h 54m
Length of Day
13h 50m
Waning Gibbous, 59% of the Moon is Illuminated
Aug 22
Waning Gibbous
Aug 23
Last Quarter
Aug 30
New
Sep 5
First Quarter
Sep 13
Full

Hourly Weather History & Observations

Time (MDT) Temp. Heat Index Dew Point Humidity Pressure Visibility Wind Dir Wind Speed Gust Speed Precip Events Conditions
12:53 AM 73.0 °F - 60.1 °F 64% 29.78 in 10.0 mi SE 12.7 mph - N/A   Clear
1:53 AM 72.0 °F - 61.0 °F 68% 29.77 in 10.0 mi SE 13.8 mph - N/A   Clear
2:53 AM 70.0 °F - 61.0 °F 73% 29.76 in 10.0 mi ESE 10.4 mph - N/A   Clear
3:53 AM 68.0 °F - 61.0 °F 78% 29.76 in 10.0 mi SE 6.9 mph - N/A   Clear
4:53 AM 66.0 °F - 61.0 °F 84% 29.75 in 10.0 mi ESE 8.1 mph - N/A   Clear
5:53 AM 66.0 °F - 61.0 °F 84% 29.75 in 10.0 mi ESE 9.2 mph - N/A   Clear
6:53 AM 66.9 °F - 61.0 °F 81% 29.75 in 10.0 mi SE 17.3 mph - N/A   Clear
7:53 AM 69.1 °F - 61.0 °F 75% 29.74 in 10.0 mi SE 13.8 mph - N/A   Clear
8:53 AM 73.9 °F - 60.1 °F 62% 29.73 in 10.0 mi SSE 13.8 mph - N/A   Clear
9:53 AM 78.1 °F - 57.9 °F 50% 29.72 in 10.0 mi SE 12.7 mph - N/A   Clear
10:53 AM 82.9 °F 82.1 °F 55.9 °F 39% 29.69 in 10.0 mi SSE 13.8 mph - N/A   Clear
11:53 AM 88.0 °F 86.1 °F 55.0 °F 32% 29.68 in 10.0 mi SE 13.8 mph 23.0 mph N/A   Clear
12:53 PM 90.0 °F 87.9 °F 55.0 °F 30% 29.65 in 10.0 mi SE 16.1 mph 25.3 mph N/A   Clear
1:53 PM 91.9 °F - 52.0 °F 26% 29.63 in 10.0 mi SSE 17.3 mph 28.8 mph N/A   Clear
2:53 PM 93.0 °F 90.8 °F 54.0 °F 27% 29.62 in 10.0 mi SE 19.6 mph 27.6 mph N/A   Clear
3:53 PM 91.9 °F 90.0 °F 55.0 °F 29% 29.62 in 10.0 mi SE 17.3 mph 26.5 mph N/A   Clear
4:53 PM 93.0 °F 91.4 °F 55.9 °F 29% 29.61 in 10.0 mi SE 13.8 mph 26.5 mph N/A   Clear
5:53 PM 91.0 °F 90.0 °F 57.9 °F 33% 29.61 in 10.0 mi SE 17.3 mph - N/A   Clear
6:53 PM 87.1 °F 85.3 °F 55.0 °F 33% 29.60 in 10.0 mi SE 16.1 mph 27.6 mph N/A   Clear
7:53 PM 84.0 °F 83.3 °F 57.0 °F 40% 29.64 in 10.0 mi SE 18.4 mph - N/A   Clear
8:53 PM 82.0 °F 82.4 °F 60.1 °F 47% 29.65 in 10.0 mi SE 16.1 mph 28.8 mph N/A Thunderstorm Clear
9:08 PM 82.0 °F 82.4 °F 60.1 °F 47% 29.73 in 10.0 mi SE 15.0 mph 23.0 mph N/A   Clear
9:20 PM 81.0 °F 81.6 °F 60.1 °F 49% 29.75 in 10.0 mi SE 12.7 mph 24.2 mph N/A Thunderstorm Clear
9:53 PM 79.0 °F - 62.1 °F 56% 29.68 in 10.0 mi SSE 19.6 mph 26.5 mph 0.00 in Rain Light Rain
10:24 PM 73.0 °F - 60.1 °F 64% 29.77 in 10.0 mi SW 12.7 mph - 0.00 in   Mostly Cloudy
10:43 PM 71.1 °F - 66.0 °F 84% 29.79 in 10.0 mi SW 17.3 mph 23.0 mph 0.00 in Rain , Thunderstorm Light Thunderstorms and Rain
10:53 PM 69.1 °F - 64.9 °F 87% 29.73 in 10.0 mi SW 13.8 mph - 0.01 in Rain , Thunderstorm Light Thunderstorms and Rain
11:04 PM 68.0 °F - 64.0 °F 87% 29.81 in 8.0 mi West 5.8 mph - 0.01 in Rain Rain
11:11 PM 68.0 °F - 64.0 °F 87% 29.83 in 8.0 mi SE 6.9 mph - 0.02 in Rain , Thunderstorm Light Thunderstorms and Rain
11:38 PM 68.0 °F - 64.0 °F 87% 29.82 in 10.0 mi West 6.9 mph - 0.02 in Rain , Thunderstorm Light Rain
11:45 PM 68.0 °F - 64.0 °F 87% 29.83 in 10.0 mi WSW 9.2 mph - 0.02 in Rain Light Rain
11:53 PM 68.0 °F - 64.0 °F 87% 29.76 in 10.0 mi West 8.1 mph - 0.03 in Rain , Thunderstorm Light Rain